"Pseudo-MPEC" for P10XOMI

Created 2020 Mar 28 5:07:11 UT using Find_Orb

Click here for an explanation of pseudo-MPECs

 
 Astrometry: 
     P10XOMI  C2020 03 21K1b#q=uNpOZ_WfVW..oCFZfE1hp`8qeI3itQdH!\w\u.Rf0`5-,IF52
     P10XOMI  C2020 03 21NQ[p!u.La2`P,knUl*,(%;*W[oqAstrometrypV#?*.T!cPc67uvF52
     P10XOMI  C2020 03 21A\Aik3swxlVMredacted;IMw+=dmqeWG)G8XwYclick:_Qu]GN)^F52
     P10XOMI  C2020 03 211Ke.+JKpw5Oxv7wMJkkM+vBxPK4\%TE1$p'BGKF5!7fN;W?BbpE^F52
     P10XOMI  C2020 03 21nO0hereHFMrk8v?sc6DcKFT7NpHH8e7Ifg34_Z;W%.-A'_=%HB%#F51
     P10XOMI  C2020 03 213Ss6!e!?#$_DlM)LC:QQGMX(2P-4rf7,?dBA*w:-UTQG'ZsJt%UuF51
     P10XOMI  C2020 03 21,4#ddR6*DBJbElo9yKm*rforOFyl%/h1CE)ad[wnY@rB8=4.1hY$F51
     P10XOMI  C2020 03 23.05100 14 06 14.77 -08 47 17.9    ~3N1q 21.9 VVNEOCP033
     P10XOMI  C2020 03 23.05458 14 06 14.56 -08 47 14.6    ~3N1q 22.7 VVNEOCP033
     P10XOMI  C2020 03 23.05816 14 06 14.43 -08 47 11.6    ~3N1q 22.0 VVNEOCP033
     P10XOMI  C2020 03 24.12625 14 05 24.02 -08 30 45.2    ~3O3q 21.6 VVNEOCP033
     P10XOMI  C2020 03 24.12983 14 05 23.87 -08 30 41.8    ~3O3q 21.5 VVNEOCP033
     P10XOMI  C2020 03 25.02334 14 04 38.95 -08 16 19.7    ~3P17 22.4 VVNEOCP033
     P10XOMI  C2020 03 25.02692 14 04 38.73 -08 16 16.1    ~3P17 21.4 VVNEOCP033
     P10XOMI KC2020 03 28r+-7Qa)0pKA9KJ5`w]?qVa0MPr^Q=j6J[B1?R'jNtoxN*8hXwxsaL01
     P10XOMI KC2020 03 28K#Ydud'f!+!wq@Oxe#MZV!?n'explanationaLY_@d#TNyr/?M;tL01
     P10XOMI  C2020 03 28.05750 14 01 42.97 -07 23 09.2    ~3S27 21.0 VVNEOCP033
     P10XOMI  C2020 03 28.06108 14 01 42.78 -07 23 05.3    ~3S27 21.0 VVNEOCP033
     P10XOMI  C2020 03 28.06466 14 01 42.52 -07 23 01.5    ~3S27 21.2 VVNEOCP033

Station data:
(033) Karl Schwarzschild Observatory, Tautenburg  (N50.980140 E11.711240)
   Germany. 1.3-m Schmidt.
(F51) Pan-STARRS 1, Haleakala  (N20.707235 W156.255910)  US/Hawaii.
   Observers N. Primak, A. Schultz, S. Watters, J. Thiel, T. Goggia. Measurer
   PS1 Science Consortium. 1.8-m Ritchey-Chrétien + CCD.
(F52) Pan-STARRS 2, Haleakala  (N20.707384 W156.255910)  US/Hawaii. 1.8-m
   Ritchey-Chrétien + CCD.
(L01) Višnjan Observatory, Tičan  (N45.290900 E13.749300)  Croatia.
   Observers K. Korlević, E. Pettarin. Measurer E. Pettarin. 1.0-m f/2.9
   reflector + CCD.

Orbital elements:  P10XOMI
   Perihelion 2020 Jul 11.489935 +/- 0.341 TT = 11:45:30 (JD 2459041.989935)
Epoch 2020 Mar 28.0 TT = JDT 2458936.5   Earth MOID: 0.1495   Ma: 0.0695
M 329.50683757 +/- 0.8              (J2000 ecliptic)          AutoNEOCP
n   0.28906229 +/- 0.00683          Peri.  143.12938 +/- 0.08
a   2.26538360 +/- 0.0357           Node   189.52425 +/- 0.08
e   0.8081235 +/- 0.00438           Incl.   14.24106 +/- 0.12
P   3.41                   H 20.0   G  0.15   U  9.4  
q 0.43467386 +/- 0.00303    Q 4.09609334 +/- 0.0732
From 19 observations 2020 Mar. 21-28; mean residual 0".33
Residuals in arcseconds: 
200321 F52  .01-  .37+    200323 033  .51-  .11+    200328 L01  .04+  .12+    
200321 F52  .17+  .09-    200323 033  1.1-  .19+    200328 L01  .47+  .43+    
200321 F52  .36+  .15+    200323 033  .49-  .04-    200328 033  .65-  .08-    
200321 F52  .10+  .22-    200324 033  .03-  .15-    200328 033  .07+  .20-    
200321 F51  .02+  .02+    200324 033  .47+  .14-    200328 033  .25-  .41-    
200321 F51  .08-  .14-    200325 033  .70+  .06+    
200321 F51  .21+  .18-    200325 033  .35+  .14+    

Ephemerides (geocentric):
Date (UTC) HH   RA              Dec         delta   r     elong  mag " sig PA
---- -- -- --  -------------   -----------  ------ ------ -----  --- ---- ---
2020 03 28 05  14 01 33.406   -07 20 10.53  .83803 1.7977 156.4 21.6 .075  68
2020 03 28 06  14 01 30.719   -07 19 23.46  .83736 1.7973 156.5 21.6 .082  65
2020 03 28 07  14 01 28.025   -07 18 36.30  .83669 1.7968 156.5 21.6 .089  62
2020 03 28 08  14 01 25.325   -07 17 49.05  .83602 1.7963 156.6 21.6 .097  60
2020 03 28 09  14 01 22.617   -07 17 01.73  .83535 1.7959 156.6 21.6 .104  58
2020 03 28 10  14 01 19.902   -07 16 14.32  .83468 1.7954 156.7 21.6 .112  56
2020 03 28 11  14 01 17.181   -07 15 26.83  .83401 1.7949 156.7 21.6 .120  54
2020 03 28 12  14 01 14.452   -07 14 39.25  .83334 1.7945 156.8 21.6 .128  53
2020 03 28 13  14 01 11.717   -07 13 51.59  .83267 1.7940 156.8 21.6 .137  52
2020 03 28 14  14 01 08.974   -07 13 03.85  .83201 1.7935 156.9 21.6 .145  50
2020 03 28 15  14 01 06.225   -07 12 16.02  .83134 1.7930 156.9 21.6 .154  49
2020 03 28 16  14 01 03.469   -07 11 28.11  .83067 1.7926 157.0 21.6 .163  48
2020 03 28 17  14 01 00.705   -07 10 40.12  .83001 1.7921 157.0 21.6 .172  47
2020 03 28 18  14 00 57.935   -07 09 52.04  .82934 1.7916 157.1 21.6 .181  47
2020 03 28 19  14 00 55.157   -07 09 03.87  .82867 1.7912 157.2 21.6 .190  46
2020 03 28 20  14 00 52.373   -07 08 15.62  .82801 1.7907 157.2 21.6 .199  45
2020 03 28 21  14 00 49.581   -07 07 27.29  .82734 1.7902 157.3 21.6 .209  44
2020 03 28 22  14 00 46.783   -07 06 38.87  .82668 1.7898 157.3 21.6 .219  44
2020 03 28 23  14 00 43.977   -07 05 50.37  .82602 1.7893 157.4 21.5 .228  43
2020 03 29 00  14 00 41.164   -07 05 01.78  .82535 1.7888 157.4 21.5 .238  42
2020 03 29 01  14 00 38.345   -07 04 13.11  .82469 1.7883 157.5 21.5 .248  42
2020 03 29 02  14 00 35.518   -07 03 24.35  .82403 1.7879 157.5 21.5 .258  41
2020 03 29 03  14 00 32.684   -07 02 35.51  .82337 1.7874 157.6 21.5 .269  41
2020 03 29 04  14 00 29.843   -07 01 46.58  .82270 1.7869 157.6 21.5 .279  40
2020 03 29 05  14 00 26.995   -07 00 57.57  .82204 1.7865 157.7 21.5 .290  40
2020 03 29 06  14 00 24.140   -07 00 08.47  .82138 1.7860 157.7 21.5 .301  39
2020 03 29 07  14 00 21.278   -06 59 19.29  .82072 1.7855 157.8 21.5 .311  39
2020 03 29 08  14 00 18.409   -06 58 30.01  .82006 1.7850 157.8 21.5 .322  38
2020 03 29 09  14 00 15.532   -06 57 40.66  .81940 1.7846 157.9 21.5 .334  38
2020 03 29 10  14 00 12.649   -06 56 51.22  .81874 1.7841 158.0 21.5 .345  37
2020 03 29 11  14 00 09.758   -06 56 01.69  .81808 1.7836 158.0 21.5 .356  37
2020 03 29 12  14 00 06.860   -06 55 12.07  .81742 1.7832 158.1 21.5 .368  37
2020 03 29 13  14 00 03.955   -06 54 22.37  .81677 1.7827 158.1 21.5 .379  36
2020 03 29 14  14 00 01.043   -06 53 32.59  .81611 1.7822 158.2 21.5 .391  36
2020 03 29 15  13 59 58.124   -06 52 42.71  .81545 1.7817 158.2 21.5 .403  35
2020 03 29 16  13 59 55.198   -06 51 52.75  .81479 1.7813 158.3 21.5 .415  35
2020 03 29 17  13 59 52.264   -06 51 02.70  .81414 1.7808 158.3 21.5 .428  35
2020 03 29 18  13 59 49.323   -06 50 12.57  .81348 1.7803 158.4 21.5 .440  34
2020 03 29 19  13 59 46.375   -06 49 22.35  .81282 1.7799 158.4 21.5 .452  34
2020 03 29 20  13 59 43.420   -06 48 32.04  .81217 1.7794 158.5 21.5 .465  34
2020 03 29 21  13 59 40.458   -06 47 41.65  .81151 1.7789 158.5 21.5 .478  33
2020 03 29 22  13 59 37.488   -06 46 51.16  .81086 1.7784 158.6 21.5 .491  33
2020 03 29 23  13 59 34.511   -06 46 00.59  .81021 1.7780 158.7 21.5 .504  33
2020 03 30 00  13 59 31.527   -06 45 09.94  .80955 1.7775 158.7 21.5 .517  32
2020 03 30 01  13 59 28.536   -06 44 19.19  .80890 1.7770 158.8 21.5 .531  32
2020 03 30 02  13 59 25.538   -06 43 28.36  .80825 1.7765 158.8 21.5 .544  32
2020 03 30 03  13 59 22.532   -06 42 37.44  .80759 1.7761 158.9 21.5 .558  32
2020 03 30 04  13 59 19.519   -06 41 46.43  .80694 1.7756 158.9 21.5 .572  31